Date String (YYYY-MM-DD hh:mm:ss) UTC,Instrument flags,Ambient pressure (hPa),Sample flow (lpm),Bypass flow (lpm),Sample temperature (°C),Ambient temperature (°C),ASC tube jacket temperature (°C),LED temperature (°C),Box temperature (°C),Sample RH (%),Span deviation,Mass concentration (μg/m³),Mass concentration (μg/m³),Mass concentration (μg/m³)
DateTimeUTC,F1_M11,P_M11,Q1_M11,Q2_M11,T1_M11,T2_M11,T3_M11,T4_M11,T5_M11,U1_M11,ZSPAN_M11,X2_M11,X0_M11,X1_M11
2022-01-11 16:00:00,,0831.8,5.01,0.00,22.7,21.9,00.0,31.7,24.4,04.2,0000.0,0000.15,0000.20,0000.13
2022-01-11 16:01:00,,0831.8,5.00,0.00,22.7,21.9,00.0,31.7,24.4,04.8,0000.0,0000.17,0000.26,0000.13
2022-01-11 16:02:00,,0831.8,5.00,0.00,22.7,21.9,00.0,31.7,24.4,04.3,0000.0,0000.22,0000.34,0000.15
2022-01-11 16:03:00,,0831.9,5.01,0.00,22.7,21.9,00.0,31.7,24.4,04.4,0000.0,0000.25,0000.39,0000.16
2022-01-11 16:04:00,,0832.0,4.99,0.00,22.7,21.9,00.0,31.7,24.4,04.1,0000.0,0000.25,0000.38,0000.17
2022-01-11 16:05:00,,0832.1,4.99,0.00,22.7,21.9,00.0,31.7,24.4,03.7,0000.0,0000.26,0000.39,0000.18
2022-01-11 16:06:00,,0832.1,5.01,0.00,22.7,21.9,00.0,31.7,24.4,04.3,0000.0,0000.28,0000.46,0000.18
2022-01-11 16:07:00,,0832.1,4.99,0.00,22.7,21.9,00.0,31.7,24.4,04.2,0000.0,0000.29,0000.50,0000.19
2022-01-11 16:08:00,,0832.1,5.02,0.00,22.7,22.0,00.0,31.7,24.4,03.9,0000.0,0000.29,0000.52,0000.19
2022-01-11 16:09:00,,0832.1,5.00,0.00,22.7,22.0,00.0,31.7,24.4,04.3,0000.0,0000.31,0000.58,0000.18
2022-01-11 16:10:00,,0832.2,5.00,0.00,22.7,21.9,00.0,31.7,24.4,04.4,0000.0,0000.32,0000.60,0000.19
2022-01-11 16:11:00,,0832.1,5.00,0.00,22.7,21.9,00.0,31.7,24.4,04.3,0000.0,0000.33,0000.61,0000.19
2022-01-11 16:12:00,,0832.2,5.00,0.00,22.7,21.9,00.0,31.7,24.4,04.4,0000.0,0000.32,0000.60,0000.20
2022-01-11 16:13:00,,0832.2,5.00,0.00,22.7,21.9,00.0,31.7,24.4,04.5,0000.0,0000.29,0000.52,0000.19
2022-01-11 16:14:00,,0832.3,4.99,0.00,22.7,22.0,00.0,31.7,24.4,04.2,0000.0,0000.25,0000.46,0000.17
2022-01-11 16:15:00,,0832.3,5.00,0.00,22.7,21.9,00.0,31.7,24.3,04.2,0000.0,0000.25,0000.58,0000.16
2022-01-11 16:16:00,,0832.2,5.00,0.00,22.6,21.9,00.0,31.7,24.2,04.0,0000.0,0000.25,0000.79,0000.16
2022-01-11 16:17:00,,0832.3,5.02,0.00,22.6,21.8,00.0,31.7,24.3,04.0,0000.0,0000.24,0000.74,0000.16
2022-01-11 16:18:00,,0832.3,4.98,0.00,22.6,21.8,00.0,31.7,24.3,04.2,0000.0,0000.23,0000.71,0000.16
2022-01-11 16:19:00,,0832.3,5.02,0.00,22.6,21.8,00.0,31.7,24.3,04.8,0000.0,0000.26,0000.74,0000.17
2022-01-11 16:20:00,,0832.3,4.99,0.00,22.6,21.8,00.0,31.7,24.3,04.5,0000.0,0000.25,0000.70,0000.18
2022-01-11 16:21:00,,0832.3,5.01,0.00,22.6,21.8,00.0,31.7,24.1,04.2,0000.0,0000.26,0000.79,0000.18
2022-01-11 16:22:00,,0832.3,4.99,0.00,22.6,21.7,00.0,31.7,24.2,03.7,0000.0,0000.25,0000.80,0000.17
2022-01-11 16:23:00,,0832.3,5.01,0.00,22.6,21.7,00.0,31.6,24.2,04.0,0000.0,0000.24,0000.75,0000.17
2022-01-11 16:24:00,,0832.2,4.98,0.00,22.6,21.7,00.0,31.6,24.2,03.9,0000.0,0000.24,0000.79,0000.17
2022-01-11 16:25:00,,0832.2,5.00,0.00,22.5,21.7,00.0,31.6,24.1,03.7,0000.0,0000.26,0001.02,0000.17
2022-01-11 16:26:00,,0832.2,5.01,0.00,22.5,21.7,00.0,31.6,24.1,04.0,0000.0,0000.26,0000.89,0000.17
2022-01-11 16:27:00,,0832.3,4.99,0.00,22.5,21.7,00.0,31.6,24.2,04.3,0000.0,0000.25,0000.68,0000.17
2022-01-11 16:28:00,,0832.2,5.00,0.00,22.5,21.8,00.0,31.6,24.2,04.2,0000.0,0000.27,0000.75,0000.19
2022-01-11 16:29:00,,0832.1,5.00,0.00,22.5,21.8,00.0,31.6,24.2,04.4,0000.0,0000.28,0000.78,0000.20
2022-01-11 16:30:00,,0832.2,4.99,0.00,22.5,21.8,00.0,31.6,24.2,04.0,0000.0,0000.25,0000.73,0000.19
2022-01-11 16:31:00,,0832.1,5.00,0.00,22.5,21.7,00.0,31.6,24.1,04.3,0000.0,0000.25,0000.74,0000.19
2022-01-11 16:32:00,,0832.1,4.99,0.00,22.5,21.7,00.0,31.6,24.1,04.3,0000.0,0000.24,0000.63,0000.20
2022-01-11 16:33:00,,0832.1,5.00,0.00,22.5,21.7,00.0,31.6,24.1,04.3,0000.0,0000.23,0000.60,0000.20
2022-01-11 16:34:00,,0832.0,5.01,0.00,22.5,21.6,00.0,31.6,24.1,04.2,0000.0,0000.23,0000.60,0000.19
2022-01-11 16:35:00,,0832.0,5.00,0.00,22.5,21.6,00.0,31.6,24.1,04.2,0000.0,0000.24,0000.60,0000.19
2022-01-11 16:36:00,,0832.0,4.99,0.00,22.5,21.6,00.0,31.6,24.2,04.6,0000.0,0000.22,0000.38,0000.19
2022-01-11 16:37:00,,0831.9,5.01,0.00,22.5,21.6,00.0,31.6,24.2,04.8,0000.0,0000.22,0000.38,0000.18
2022-01-11 16:38:00,,0832.0,5.00,0.00,22.5,21.6,00.0,31.6,24.2,04.4,0000.0,0000.22,0000.38,0000.18
2022-01-11 16:39:00,,0832.0,5.00,0.00,22.5,21.6,00.0,31.6,24.3,04.7,0000.0,0000.19,0000.29,0000.17
2022-01-11 16:40:00,,0832.0,4.99,0.00,22.4,21.6,00.0,31.5,24.2,04.3,0000.0,0000.17,0000.23,0000.15
2022-01-11 16:41:00,,0832.0,5.00,0.00,22.4,21.5,00.0,31.5,24.1,04.3,0000.0,0000.17,0000.23,0000.15
2022-01-11 16:42:00,,0831.8,4.99,0.00,22.4,21.5,00.0,31.5,24.1,04.7,0000.0,0000.16,0000.22,0000.14
2022-01-11 16:43:00,,0831.9,5.02,0.00,22.4,21.5,00.0,31.5,24.1,04.4,0000.0,0000.16,0000.20,0000.14
2022-01-11 16:44:00,,0831.9,4.99,0.00,22.4,21.5,00.0,31.5,24.1,04.7,0000.0,0000.16,0000.20,0000.14
2022-01-11 16:45:00,,0832.0,5.01,0.00,22.4,21.5,00.0,31.5,24.0,04.9,0000.0,0000.16,0000.20,0000.14
2022-01-11 16:46:00,,0831.9,4.99,0.00,22.3,21.4,00.0,31.5,24.0,04.9,0000.0,0000.14,0000.16,0000.14
2022-01-11 16:47:00,,0832.0,5.00,0.00,22.3,21.4,00.0,31.4,24.0,04.7,0000.0,0000.16,0000.20,0000.14
2022-01-11 16:48:00,,0831.9,4.99,0.00,22.3,21.4,00.0,31.4,24.0,04.5,0000.0,0000.16,0000.21,0000.14
2022-01-11 16:49:00,,0831.9,5.02,0.00,22.3,21.5,00.0,31.4,24.0,04.5,0000.0,0000.17,0000.23,0000.14
2022-01-11 16:50:00,,0831.9,4.99,0.00,22.4,22.2,00.0,31.5,24.2,04.4,0000.0,0000.17,0000.24,0000.14
2022-01-11 16:51:00,,0832.0,5.00,0.00,22.6,23.1,00.0,31.5,24.6,04.5,0000.0,0000.17,0000.24,0000.14
2022-01-11 16:52:00,,0832.1,4.99,0.00,22.7,23.2,00.0,31.6,24.7,04.4,0000.0,0000.17,0000.24,0000.14
2022-01-11 16:53:00,,0832.0,4.99,0.00,22.7,23.0,00.0,31.6,24.7,04.3,0000.0,0000.17,0000.24,0000.14
2022-01-11 16:54:00,,0832.1,5.01,0.00,22.7,22.8,00.0,31.6,24.6,04.5,0000.0,0000.17,0000.24,0000.14
2022-01-11 16:55:00,,0832.1,4.99,0.00,22.7,22.7,00.0,31.6,24.6,04.3,0000.0,0000.17,0000.24,0000.13
2022-01-11 16:56:00,,0832.1,5.00,0.00,22.7,22.5,00.0,31.6,24.5,04.4,0000.0,0000.17,0000.24,0000.13
2022-01-11 16:57:00,,0832.1,5.01,0.00,22.7,22.4,00.0,31.6,24.4,04.4,0000.0,0000.17,0000.24,0000.14
2022-01-11 16:58:00,,0832.1,4.99,0.00,22.6,22.3,00.0,31.6,24.4,04.4,0000.0,0000.15,0000.20,0000.13
2022-01-11 16:59:00,,0832.1,5.01,0.00,22.6,22.2,00.0,31.6,24.3,04.3,0000.0,0000.15,0000.20,0000.13
